Date,TemperatureHighF,TemperatureAvgF,TemperatureLowF,DewpointHighF,DewpointAvgF,DewpointLowF,HumidityHigh,HumidityAvg,HumidityLow,PressureMaxIn,PressureMinIn,WindSpeedMaxMPH,WindSpeedAvgMPH,GustSpeedMaxMPH,PrecipitationSumIn
2013-1-1,26.7,19.6,13.7,23.0,10.9,0.0,88,70,42,30.13,30.02,7,2,0,0.00
2013-1-2,27.9,22.7,17.6,18.0,5.6,0.0,87,49,37,30.26,30.11,11,4,0,0.00
2013-1-3,34.0,23.7,16.1,9.0,1.6,-3.0,48,39,27,30.26,30.16,11,4,0,0.00
2013-1-4,41.6,31.8,23.5,18.0,9.1,1.0,50,39,28,30.18,30.04,10,4,0,0.00
2013-1-5,37.9,30.1,24.2,20.0,10.4,4.0,83,44,34,30.26,30.06,15,6,0,0.00
2013-1-6,41.2,31.2,19.5,18.0,5.5,-5.0,45,34,26,30.24,29.97,9,3,0,0.00
2013-1-7,48.6,39.6,29.8,20.0,9.0,0.0,53,30,14,30.03,29.86,16,5,0,0.00
2013-1-8,47.4,43.2,34.3,17.0,13.2,-4.0,45,30,12,30.21,29.84,39,16,0,0.01
2013-1-9,50.4,38.5,29.0,22.0,16.5,10.0,55,42,29,30.28,30.03,10,4,0,0.00
2013-1-10,44.8,33.9,26.1,22.0,15.5,6.0,61,48,20,30.03,29.55,10,3,0,0.00
2013-1-11,38.7,26.7,8.1,23.0,11.4,-7.0,87,58,16,29.82,29.41,33,9,0,0.00
2013-1-12,15.2,8.8,2.6,9.0,4.3,-2.0,89,82,72,30.00,29.82,11,3,0,0.00
2013-1-13,13.3,7.3,1.2,9.0,1.3,-5.0,83,76,64,30.08,29.98,5,1,0,0.00
2013-1-14,14.6,7.2,2.0,11.0,-2.5,-99.9,87,71,65,30.11,30.02,10,-91,0,0.00
2013-1-15,31.1,18.4,-0.4,17.0,6.8,-7.0,84,61,45,30.11,30.04,11,3,0,0.00
2013-1-16,50.3,37.1,28.2,24.0,18.8,14.0,61,49,31,30.33,30.11,10,4,0,0.00
2013-1-17,48.0,35.6,28.9,22.0,16.8,11.0,61,48,28,30.41,30.20,9,4,0,0.00
2013-1-18,53.7,44.6,30.1,17.0,3.6,-5.0,57,22,9,30.20,30.04,35,12,0,0.00
2013-1-19,55.8,45.8,32.5,9.0,1.3,-7.0,34,17,9,30.23,30.08,30,8,0,0.00
2013-1-20,46.0,34.0,21.7,14.0,9.8,2.0,65,38,19,30.24,30.13,13,4,0,0.00
2013-1-21,51.7,36.6,18.2,19.0,7.7,-15.0,78,41,6,30.20,30.05,33,8,0,0.00
2013-1-22,57.2,48.0,34.2,22.0,-3.9,-35.0,28,13,2,30.17,30.01,37,8,0,0.00
2013-1-23,63.8,51.5,36.7,9.0,-12.7,-99.9,31,9,1,30.20,30.12,33,8,0,0.00
2013-1-24,61.1,49.9,29.3,24.0,9.4,-15.0,45,24,5,30.15,30.00,37,15,0,0.00
2013-1-25,50.8,41.6,34.2,27.0,24.4,22.0,64,51,35,30.18,30.09,16,4,0,0.00
2013-1-26,52.2,42.5,34.5,36.0,27.8,24.0,82,58,38,30.08,29.83,16,3,0,0.00
2013-1-27,55.3,43.4,35.5,38.0,29.9,18.0,86,62,34,29.84,29.78,17,6,0,0.00
2013-1-28,46.7,35.9,26.1,30.0,23.2,16.0,92,63,40,29.80,29.65,16,6,0,0.06
2013-1-29,29.6,22.7,13.8,23.0,14.8,3.0,92,72,51,29.96,29.75,18,4,0,0.02
2013-1-30,38.2,25.9,10.1,21.0,10.0,1.0,80,53,35,29.95,29.82,32,9,0,0.00
2013-1-31,44.7,34.8,22.6,25.0,17.8,12.0,82,53,29,30.12,29.89,29,9,0,0.00
2013-2-1,46.8,35.1,21.7,24.0,17.6,12.0,88,54,29,30.17,30.05,27,8,0,0.00
2013-2-2,55.3,36.9,24.9,28.0,17.6,8.0,72,50,15,30.29,30.16,12,4,0,0.00
2013-2-3,45.1,37.5,28.6,21.0,12.3,-1.0,53,38,15,30.23,29.94,16,4,0,0.00
2013-2-4,51.7,42.2,29.5,16.0,8.4,1.0,46,26,14,30.00,29.88,24,9,0,0.00
2013-2-5,55.9,44.7,33.0,21.0,16.2,11.0,43,32,22,30.07,29.90,27,5,0,0.00
2013-2-6,51.7,42.1,32.7,33.0,22.6,18.0,87,50,27,30.10,29.87,17,5,0,0.00
2013-2-7,46.6,35.5,26.3,30.0,18.7,8.0,91,54,26,30.16,30.04,13,5,0,0.00
2013-2-8,48.3,34.6,23.4,14.0,6.6,0.0,54,34,14,30.04,29.77,10,4,0,0.00
2013-2-9,36.5,30.0,23.7,27.0,18.5,9.0,90,65,37,29.77,29.63,13,4,0,0.00
2013-2-10,35.3,27.1,19.4,21.0,15.2,8.0,87,63,32,30.06,29.66,15,4,0,0.00
2013-2-11,26.5,21.2,16.8,18.0,14.9,11.0,87,77,65,30.06,29.97,8,3,0,0.02
2013-2-12,40.8,27.3,15.0,15.0,3.4,-8.0,70,41,13,30.04,30.00,13,4,0,0.00
2013-2-13,46.0,34.3,21.3,13.0,9.5,5.0,53,37,23,30.04,29.93,31,10,0,0.00
2013-2-14,33.0,25.6,20.1,23.0,17.6,12.0,89,73,46,30.25,30.02,25,6,0,0.02
2013-2-15,40.3,26.3,15.8,23.0,14.2,6.0,80,64,26,30.26,30.18,18,6,0,0.00
2013-2-16,54.2,43.5,20.7,17.0,10.4,3.0,76,29,16,30.18,30.00,39,13,0,0.00
2013-2-17,57.3,47.2,31.3,17.0,-0.5,-18.0,52,17,4,30.00,29.67,36,13,0,0.00
2013-2-18,39.2,29.9,21.5,18.0,8.3,-4.0,73,45,17,30.09,29.82,22,6,0,0.00
2013-2-19,38.8,27.8,20.9,13.0,8.7,3.0,67,46,23,30.09,29.84,13,3,0,0.00
2013-2-20,35.8,24.6,18.5,25.0,16.5,12.0,92,73,44,29.85,29.70,12,4,0,0.21
2013-2-21,29.2,20.7,13.0,24.0,17.1,10.0,92,86,73,29.90,29.76,7,2,0,0.07
2013-2-22,32.1,24.4,15.0,21.0,14.6,3.0,86,68,33,29.97,29.85,20,5,0,0.00
2013-2-23,35.6,27.1,18.0,26.0,15.9,3.0,90,63,35,29.86,29.69,15,4,0,0.00
2013-2-24,27.9,26.0,22.2,26.0,23.3,18.0,92,89,83,30.10,29.78,21,5,0,0.17
2013-2-25,31.2,22.0,13.0,21.0,15.2,7.0,83,75,64,30.09,29.86,8,2,0,0.00
2013-2-26,33.4,26.7,19.1,27.0,18.3,12.0,92,72,48,30.12,29.83,24,5,0,0.07
2013-2-27,33.5,24.6,17.3,16.0,10.9,6.0,69,57,40,30.21,30.12,11,4,0,0.00
2013-2-28,37.6,30.2,18.0,19.0,9.6,2.0,58,43,33,30.21,30.15,17,5,0,0.00
2013-3-1,43.4,34.3,24.0,26.0,18.8,8.0,66,54,30,30.29,30.19,8,2,0,0.00
2013-3-2,55.6,44.0,33.2,35.0,25.8,19.0,60,50,27,30.27,30.06,17,4,0,0.00
2013-3-3,59.2,52.6,44.9,26.0,20.9,17.0,41,30,20,30.06,29.71,45,15,0,0.00
2013-3-4,49.6,30.6,18.5,27.0,20.4,6.0,89,69,35,30.20,29.74,35,8,0,0.08
2013-3-5,36.6,24.9,13.9,25.0,15.1,8.0,82,67,47,30.23,30.13,7,3,0,0.00
2013-3-6,55.4,37.1,23.8,30.0,24.0,17.0,80,62,31,30.13,29.91,12,3,0,0.00
2013-3-7,61.6,46.0,34.5,31.0,25.5,19.0,67,48,19,30.01,29.91,15,4,0,0.00
2013-3-8,45.7,37.0,30.1,32.0,28.1,23.0,82,71,55,30.01,29.75,7,2,0,0.00
2013-3-9,36.2,31.7,24.7,31.0,26.9,13.0,94,83,52,30.09,29.72,17,5,0,0.30
2013-3-10,43.0,31.1,19.6,24.0,17.3,10.0,69,58,38,30.12,30.03,14,6,0,0.00
2013-3-11,51.3,41.6,28.8,29.0,20.3,13.0,93,48,27,30.15,29.93,35,13,0,0.17
2013-3-12,33.6,28.6,23.1,27.0,24.4,21.0,92,84,72,30.28,30.15,7,3,0,0.06
2013-3-13,60.9,41.6,26.6,37.0,26.4,19.0,89,61,21,30.27,30.16,16,5,0,0.00
2013-3-14,69.0,57.2,44.3,31.0,20.7,13.0,45,26,12,30.30,30.16,21,7,0,0.00
2013-3-15,71.6,62.2,54.2,27.0,21.1,16.0,33,21,12,30.15,29.94,35,11,0,0.00
2013-3-16,58.4,45.4,38.8,33.0,29.8,25.0,71,56,29,30.06,29.88,15,6,0,0.00
2013-3-17,55.7,43.1,32.9,29.0,20.3,2.0,68,43,21,29.89,29.65,33,12,0,0.00
2013-3-18,46.1,38.9,31.4,13.0,7.2,-1.0,34,27,21,29.97,29.89,32,14,0,0.00
2013-3-19,53.2,42.0,26.9,16.0,-4.2,-22.0,64,19,4,30.33,29.96,25,11,0,0.00
2013-3-20,50.3,36.0,21.3,24.0,18.8,14.0,75,53,30,30.31,29.81,26,4,0,0.00
2013-3-21,54.9,44.6,34.9,32.0,18.7,1.0,60,38,20,29.87,29.64,29,10,0,0.00
2013-3-22,43.8,30.9,24.6,28.0,17.7,6.0,93,62,30,29.95,29.78,17,6,0,0.14
2013-3-23,24.7,19.6,15.3,23.0,16.1,9.0,92,86,77,30.15,29.94,14,6,0,1.15
2013-3-24,26.7,17.7,8.3,17.0,2.1,-99.9,87,66,54,30.18,30.07,11,3,0,0.01
2013-3-25,32.0,21.9,10.9,17.0,12.7,7.0,89,69,48,30.22,30.16,12,4,0,0.00
2013-3-26,40.5,30.4,18.2,29.0,20.2,10.0,78,67,54,30.16,29.96,10,3,0,0.00
2013-3-27,52.0,39.8,30.3,37.0,30.3,24.0,82,70,51,30.12,30.03,9,3,0,0.00
2013-3-28,58.3,44.9,32.8,35.0,31.1,28.0,85,61,36,30.16,30.09,11,4,0,0.00
2013-3-29,63.1,51.6,41.5,32.0,28.9,26.0,65,44,25,30.16,30.09,19,8,0,0.00
2013-3-30,48.5,43.2,39.1,32.0,28.7,27.0,68,57,43,30.16,30.12,11,5,0,0.00
2013-3-31,67.2,54.3,36.5,33.0,25.7,-99.9,72,37,19,30.17,29.99,16,-10,0,0.00
2013-4-1,48.3,39.0,27.9,36.0,29.7,23.0,87,70,48,30.18,30.07,11,-28,0,0.02
2013-4-2,38.8,36.7,34.4,35.0,33.4,31.0,93,88,80,30.15,30.08,9,3,0,0.22
2013-4-3,60.7,46.1,35.5,40.0,34.3,27.0,95,68,34,30.16,30.08,21,4,0,0.00
2013-4-4,68.4,53.4,37.7,37.0,31.2,27.0,76,46,21,30.18,30.04,10,4,0,0.00
2013-4-5,71.0,58.9,48.9,37.0,25.7,19.0,62,31,15,30.04,29.80,25,9,0,0.00
2013-4-6,63.3,53.4,42.6,30.0,23.3,16.0,47,32,19,30.01,29.92,24,8,0,0.00
2013-4-7,61.8,52.4,39.4,33.0,26.7,19.0,76,40,21,29.93,29.76,37,12,0,0.00
2013-4-8,59.2,45.2,26.9,35.0,29.7,25.0,93,58,32,29.88,29.54,28,7,0,0.20
2013-4-9,26.0,18.3,12.0,24.0,15.2,9.0,92,87,83,30.16,29.89,14,-39,0,0.15
2013-4-10,27.1,17.3,5.3,22.0,12.6,1.0,87,82,73,30.14,29.91,8,3,0,0.00
2013-4-11,50.6,35.7,18.0,37.0,27.7,15.0,94,75,47,29.96,29.78,12,-144,0,0.00
2013-4-12,56.4,42.2,35.4,35.0,31.9,29.0,92,68,36,30.03,29.93,32,4,0,0.00
2013-4-13,62.0,46.8,30.2,37.0,29.5,20.0,90,58,20,30.00,29.53,30,7,0,0.04
2013-4-14,45.5,40.3,34.2,38.0,15.1,1.0,83,39,17,29.81,29.61,33,14,0,0.10
2013-4-15,37.9,27.2,22.1,26.0,22.3,14.0,91,83,38,30.04,29.80,17,4,0,0.87
2013-4-16,31.8,27.0,21.8,28.0,23.7,20.0,92,87,81,30.04,29.90,12,4,0,0.10
2013-4-17,28.5,25.1,18.6,27.0,22.6,16.0,95,90,81,30.15,29.96,15,6,0,1.46
2013-4-18,34.1,24.0,11.4,20.0,14.7,7.0,90,69,42,30.14,30.08,12,3,0,0.03
2013-4-19,48.3,38.6,26.5,28.0,19.1,11.0,60,46,36,30.11,29.99,24,7,0,0.03
2013-4-20,52.8,43.2,32.3,35.0,29.7,24.0,75,60,45,30.06,29.95,14,3,0,0.00
2013-4-21,59.1,48.7,35.9,33.0,25.7,19.0,80,45,21,30.10,30.02,26,8,0,0.00
2013-4-22,47.3,33.0,21.4,37.0,26.9,20.0,93,80,42,30.27,29.95,21,6,0,0.66
2013-4-23,31.6,24.4,17.4,23.0,19.3,15.0,93,81,64,30.25,30.13,11,3,0,0.34
2013-4-24,51.1,36.4,21.4,27.0,19.9,16.0,79,54,26,30.21,30.12,11,4,0,0.00
2013-4-25,59.0,44.7,31.2,36.0,23.3,15.0,57,44,27,30.17,29.98,12,4,0,0.00
2013-4-26,66.4,53.9,41.7,28.0,21.5,11.0,51,30,15,30.25,30.06,15,6,0,0.00
2013-4-27,72.9,60.8,43.5,27.0,18.7,13.0,43,21,11,30.23,30.08,16,7,0,0.00
2013-4-28,76.4,67.0,59.1,33.0,22.7,14.0,37,19,13,30.08,29.93,24,9,0,0.00
2013-4-29,76.7,64.8,48.2,38.0,27.7,15.0,59,28,11,30.02,29.73,31,9,0,0.00
2013-4-30,65.5,51.1,34.0,40.0,33.7,21.0,93,57,19,30.07,29.74,22,6,0,0.33
2013-5-1,34.2,28.7,23.8,32.0,26.9,22.0,95,93,89,30.55,30.08,19,6,0,2.73
2013-5-2,42.2,31.2,18.9,28.0,22.1,14.0,89,71,34,30.59,30.39,10,3,0,0.00
2013-5-3,57.6,43.9,30.3,34.0,26.9,22.0,74,54,31,30.38,30.13,11,3,0,0.00
2013-5-4,56.9,46.8,36.0,35.0,29.9,25.0,71,53,37,30.25,30.12,12,4,0,0.00
2013-5-5,56.5,45.5,35.8,38.0,28.9,22.0,72,54,33,30.25,30.12,11,4,0,0.01
2013-5-6,63.5,52.3,38.7,39.0,34.5,31.0,78,53,31,30.13,29.98,11,4,0,0.00
2013-5-7,70.8,54.5,45.4,45.0,38.8,33.0,85,58,29,30.08,29.96,15,5,0,0.17
2013-5-8,60.4,49.9,45.1,45.0,40.6,35.0,88,71,41,30.14,30.02,27,8,0,0.37
2013-5-9,58.9,50.4,44.9,46.0,41.3,37.0,85,72,46,30.23,30.12,18,5,0,0.10
2013-5-10,66.0,53.8,40.2,44.0,37.8,34.0,81,57,35,30.33,30.20,21,6,0,0.00
2013-5-11,67.2,55.9,44.9,46.0,39.6,33.0,71,55,37,30.40,30.25,16,5,0,0.00
2013-5-12,78.4,65.9,50.2,44.0,36.2,31.0,58,35,22,30.27,30.15,22,6,0,0.00
2013-5-13,84.0,74.4,67.7,47.0,37.4,31.0,39,27,20,30.22,30.10,22,8,0,0.00
2013-5-14,83.9,71.7,62.1,46.0,37.5,33.0,39,29,20,30.11,30.01,21,7,0,0.00
2013-5-15,77.1,65.7,56.3,50.0,41.1,33.0,75,43,23,30.07,29.98,21,6,0,0.00
2013-5-16,79.0,65.3,52.7,50.0,42.6,33.0,74,47,20,30.03,29.90,26,5,0,0.00
2013-5-17,86.0,69.6,53.3,52.0,36.6,13.0,65,36,10,29.99,29.85,26,7,0,0.00
2013-5-18,74.9,66.4,54.6,43.0,30.7,11.0,53,29,10,29.99,29.86,32,10,0,0.00
2013-5-19,68.3,59.4,49.5,35.0,29.3,25.0,52,33,21,29.94,29.85,20,9,0,0.00
2013-5-20,65.4,55.1,47.1,48.0,41.1,30.0,90,61,42,30.08,29.93,15,6,0,0.02
2013-5-21,72.1,56.2,42.0,41.0,34.5,26.0,78,48,23,30.10,29.95,17,5,0,0.00
2013-5-22,74.6,58.5,44.6,50.0,38.3,32.0,83,50,28,30.14,29.97,13,4,0,0.04
2013-5-23,68.1,55.7,47.2,50.0,46.7,44.0,91,73,51,30.16,30.03,12,4,0,0.00
2013-5-24,79.9,62.6,45.7,53.0,44.4,35.0,90,57,20,30.07,29.99,10,3,0,0.00
2013-5-25,83.8,69.8,54.7,53.0,42.4,26.0,70,41,12,30.08,29.95,12,5,0,0.00
2013-5-26,84.9,70.8,57.4,42.0,29.2,17.0,42,22,10,30.02,29.95,21,7,0,0.00
2013-5-27,83.4,68.5,51.5,38.0,27.1,15.0,46,23,9,29.96,29.84,19,5,0,0.00
2013-5-28,78.4,64.2,49.1,48.0,36.4,24.0,62,38,17,29.93,29.69,18,4,0,0.00
2013-5-29,63.4,55.1,46.9,49.0,41.7,30.0,90,64,31,29.83,29.73,22,5,0,0.09
2013-5-30,67.5,59.1,52.6,30.0,25.8,18.0,39,29,17,29.95,29.77,31,12,0,0.00
2013-5-31,68.6,59.7,48.2,28.0,17.9,9.0,41,21,12,30.07,29.92,29,12,0,0.00
2013-6-1,70.5,58.1,45.1,41.0,36.0,21.0,65,45,22,30.26,30.09,10,3,0,0.00
2013-6-2,84.2,64.1,46.7,43.0,35.1,30.0,56,37,18,30.25,29.92,10,4,0,0.00
2013-6-3,86.2,72.9,56.3,44.0,29.1,20.0,35,21,9,30.02,29.86,27,8,0,0.00
2013-6-4,71.7,59.7,50.8,52.0,42.5,25.0,87,55,23,30.27,30.02,27,4,0,0.09
2013-6-5,59.8,51.2,46.1,49.0,45.2,42.0,91,80,66,30.26,30.18,6,2,0,0.01
2013-6-6,79.3,61.7,46.4,48.0,41.9,37.0,85,53,23,30.19,30.10,10,3,0,0.00
2013-6-7,79.9,64.9,53.6,53.0,42.7,37.0,63,46,29,30.18,29.91,10,4,0,0.01
2013-6-8,77.0,68.3,58.0,49.0,43.0,34.0,59,41,28,30.13,29.87,17,5,0,0.00
2013-6-9,89.6,70.8,53.5,49.0,40.8,32.0,60,38,16,30.12,30.02,14,5,0,0.00
2013-6-10,96.4,80.4,64.1,53.0,38.1,27.0,42,23,10,30.05,29.95,14,5,0,0.00
2013-6-11,95.0,80.6,62.5,47.0,25.3,-7.0,36,17,2,30.07,29.91,25,7,0,0.00
2013-6-12,91.9,76.2,61.4,52.0,33.6,23.0,55,22,12,30.21,30.08,22,5,0,0.00
2013-6-13,83.3,66.8,55.3,58.0,53.0,48.0,87,64,34,30.21,30.00,13,4,0,0.00
2013-6-14,90.3,73.7,59.7,52.0,42.4,31.0,61,36,13,30.09,29.99,16,6,0,0.00
2013-6-15,81.6,69.5,56.7,50.0,47.0,44.0,65,46,32,30.17,30.06,13,4,0,0.00
2013-6-16,78.1,67.4,56.2,55.0,45.7,33.0,71,49,22,30.23,30.12,30,6,0,0.00
2013-6-17,79.8,66.0,52.9,56.0,46.6,37.0,69,51,34,30.24,30.12,16,4,0,0.00
2013-6-18,83.8,67.0,52.3,54.0,49.5,43.0,86,57,25,30.21,30.00,12,3,0,0.00
2013-6-19,92.7,71.6,51.4,53.0,38.4,-5.0,79,42,3,30.10,29.81,22,4,0,0.00
2013-6-20,88.6,74.6,55.0,48.0,31.0,10.0,46,22,9,30.03,29.88,12,5,0,0.00
2013-6-21,92.2,75.4,59.6,56.0,41.0,13.0,53,33,6,30.02,29.91,13,4,0,0.00
2013-6-22,87.2,69.8,55.6,55.0,43.9,21.0,60,43,9,30.06,29.88,11,4,0,0.00
2013-6-23,81.8,68.0,54.6,52.0,44.4,35.0,68,45,25,30.13,29.94,12,4,0,0.00
2013-6-24,87.8,74.7,57.9,51.0,37.6,15.0,64,32,9,30.03,29.88,26,6,0,0.00
2013-6-25,88.7,77.4,64.5,38.0,31.1,22.0,28,19,13,30.11,29.92,27,10,0,0.00
2013-6-26,95.4,80.4,62.3,47.0,38.3,32.0,37,23,12,30.17,30.11,11,5,0,0.00
2013-6-27,96.6,83.0,69.5,50.0,38.7,33.0,34,22,12,30.32,30.16,11,5,0,0.00
2013-6-28,90.0,75.3,60.9,61.0,50.8,42.0,88,44,29,30.34,30.21,23,5,0,0.75
2013-6-29,83.8,71.1,59.8,61.0,54.6,50.0,76,57,35,30.30,30.19,7,3,0,0.00
2013-6-30,77.7,67.6,61.3,58.0,55.0,52.0,82,65,44,30.28,30.22,11,4,0,0.01
2013-7-1,78.2,67.1,55.1,56.0,52.8,49.0,81,61,42,30.34,30.25,13,4,0,0.00
2013-7-2,81.5,68.5,54.4,54.0,49.9,45.0,80,54,30,30.33,30.20,11,3,0,0.00
2013-7-3,87.6,72.8,55.3,52.0,45.6,41.0,63,40,23,30.21,30.03,18,5,0,0.00
2013-7-4,90.4,77.1,63.4,49.0,44.8,40.0,46,32,22,30.10,30.02,19,5,0,0.00
2013-7-5,83.2,73.1,65.7,58.0,51.4,44.0,63,48,34,30.04,29.96,21,4,0,0.00
2013-7-6,89.9,76.8,65.8,54.0,48.1,43.0,58,38,21,30.09,29.98,32,8,0,0.04
2013-7-7,89.5,74.7,63.1,61.0,53.5,47.0,68,49,28,30.16,30.07,23,4,0,0.19
2013-7-8,88.3,75.5,61.4,58.0,51.2,38.0,83,47,19,30.20,30.11,28,6,0,0.00
2013-7-9,91.2,79.1,67.7,54.0,44.8,39.0,46,30,16,30.29,30.19,20,4,0,0.01
2013-7-10,91.6,74.8,60.8,58.0,52.0,44.0,64,46,21,30.31,30.11,12,3,0,0.00
2013-7-11,98.0,77.9,61.1,58.0,52.0,42.0,71,45,15,30.19,29.97,23,6,0,0.00
2013-7-12,91.4,75.3,65.0,62.0,52.8,45.0,86,48,26,30.17,30.03,22,5,0,0.14
2013-7-13,88.1,71.5,64.1,61.0,57.5,54.0,85,63,36,30.27,30.14,25,4,0,0.00
2013-7-14,77.9,69.5,60.3,62.0,57.3,50.0,81,66,47,30.31,30.18,11,4,0,0.00
2013-7-15,80.6,57.4,61.4,63.0,32.1,-99.9,94,60,48,30.27,30.18,17,3,0,0.13
2013-7-16,85.7,69.2,54.2,55.0,51.1,47.0,89,57,27,30.29,30.19,11,3,0,0.00
2013-7-17,89.0,72.1,55.6,57.0,49.7,-99.9,77,50,29,30.28,30.17,11,-10,0,0.00
2013-7-18,90.2,73.7,62.0,57.0,52.4,47.0,68,49,27,30.25,30.17,24,6,0,0.05
2013-7-19,80.7,72.2,63.0,59.0,55.7,52.0,78,58,40,30.26,30.17,16,5,0,0.00
2013-7-20,85.7,69.8,58.8,66.0,53.9,50.0,78,59,31,30.17,30.07,20,4,0,0.23
2013-7-21,86.8,71.2,55.7,61.0,53.5,35.0,81,57,23,30.11,30.00,13,5,0,0.00
2013-7-22,91.3,78.7,63.4,57.0,45.8,22.0,48,32,12,30.11,30.00,14,4,0,0.00
2013-7-23,89.5,77.2,67.9,57.0,42.4,10.0,61,32,7,30.25,30.06,13,4,0,0.00
2013-7-24,80.0,71.3,61.2,60.0,53.6,45.0,74,55,31,30.28,30.12,21,5,0,0.00
2013-7-25,74.5,64.8,57.1,60.0,54.1,50.0,86,70,47,30.31,30.15,14,3,0,0.14
2013-7-26,84.3,70.0,59.2,56.0,50.0,41.0,74,52,22,30.33,30.21,15,4,0,0.00
2013-7-27,74.6,64.5,54.7,60.0,52.4,45.0,92,66,50,30.24,30.13,11,3,0,0.05
2013-7-28,73.8,62.2,57.3,63.0,57.9,56.0,96,87,60,30.18,30.04,10,3,0,0.04
2013-7-29,74.8,63.3,56.9,62.0,55.4,50.0,92,76,48,30.25,30.05,16,3,0,0.18
2013-7-30,86.7,70.7,59.3,56.0,52.1,46.0,81,54,24,30.30,30.23,10,3,0,0.00
2013-7-31,89.9,72.2,59.2,54.0,50.8,44.0,74,50,23,30.36,30.23,16,4,0,0.00
2013-8-1,85.3,71.9,59.6,58.0,52.2,46.0,77,52,29,30.29,30.09,13,3,0,0.00
2013-8-2,90.8,75.7,60.7,57.0,50.2,45.0,72,44,21,30.15,30.06,13,4,0,0.00
2013-8-3,89.6,70.2,59.9,61.0,54.7,49.0,94,61,26,30.33,30.14,28,6,0,0.99
2013-8-4,85.6,71.2,57.1,60.0,52.3,45.0,80,54,28,30.26,30.16,18,4,0,0.00
2013-8-5,85.0,70.2,63.5,58.0,50.5,45.0,79,51,29,30.21,30.11,20,5,0,0.05
2013-8-6,81.8,70.7,60.9,56.0,47.9,42.0,68,46,26,30.14,30.08,31,6,0,0.00
2013-8-7,75.6,65.2,58.5,56.0,52.1,44.0,79,64,45,30.20,30.11,11,2,0,0.00
2013-8-8,75.1,62.8,53.1,59.0,54.1,47.0,88,74,52,30.24,30.12,10,2,0,0.04
2013-8-9,76.2,64.5,54.4,55.0,49.9,45.0,83,61,37,30.26,30.20,18,4,0,0.01
2013-8-10,86.4,67.9,52.9,53.0,47.1,43.0,71,50,26,30.28,30.18,14,4,0,0.00
2013-8-11,80.3,68.4,59.4,55.0,48.2,44.0,79,51,30,30.27,30.20,15,4,0,0.04
2013-8-12,80.0,66.4,54.2,56.0,51.1,45.0,83,60,29,30.33,30.20,15,4,0,0.00
2013-8-13,76.0,65.7,54.1,53.0,48.1,45.0,76,54,35,30.30,30.20,23,6,0,0.01
2013-8-14,83.0,65.3,52.0,58.0,48.2,44.0,79,57,27,30.28,30.18,11,3,0,0.03
2013-8-15,83.7,68.2,55.2,52.0,46.2,40.0,65,47,24,30.25,30.16,12,3,0,0.00
2013-8-16,89.6,74.0,58.5,51.0,44.0,37.0,53,36,16,30.25,30.18,11,4,0,0.00
2013-8-17,92.6,75.2,56.9,52.0,40.9,23.0,60,33,8,30.23,30.11,11,4,0,0.00
2013-8-18,90.1,73.7,60.2,56.0,43.2,34.0,49,35,17,30.22,30.14,17,3,0,0.00
2013-8-19,93.0,77.0,60.5,55.0,43.6,37.0,51,32,14,30.20,30.11,13,3,0,0.00
2013-8-20,96.7,79.3,65.7,53.0,41.2,31.0,40,27,10,30.14,30.07,10,3,0,0.00
2013-8-21,90.1,77.3,69.1,54.0,46.8,40.0,53,35,22,30.23,30.13,16,4,0,0.00
2013-8-22,80.6,69.9,60.8,60.0,54.1,50.0,80,58,39,30.30,30.19,10,3,0,0.03
2013-8-23,82.3,70.4,59.5,60.0,53.4,44.0,83,57,29,30.25,30.07,24,5,0,0.01
2013-8-24,85.1,72.7,61.7,56.0,50.1,46.0,63,46,30,30.21,30.10,23,6,0,0.01
2013-8-25,87.0,74.1,63.1,54.0,49.7,46.0,57,43,28,30.23,30.16,14,5,0,0.00
2013-8-26,88.4,73.8,64.0,58.0,53.0,50.0,76,50,29,30.23,30.17,33,7,0,0.14
2013-8-27,90.4,76.5,65.5,60.0,54.3,51.0,75,48,29,30.23,30.13,11,5,0,0.00
2013-8-28,90.6,78.0,68.6,57.0,49.9,43.0,56,39,25,30.22,30.15,14,4,0,0.00
2013-8-29,91.8,79.2,70.1,54.0,46.5,43.0,41,32,20,30.25,30.19,27,6,0,0.00
2013-8-30,88.4,77.2,65.6,53.0,48.6,44.0,49,37,25,30.27,30.17,15,4,0,0.00
2013-8-31,89.3,74.1,64.1,58.0,48.5,45.0,63,42,22,30.22,30.15,26,6,0,0.00
2013-9-1,78.6,69.3,60.2,58.0,55.2,47.0,81,62,41,30.28,30.18,11,3,0,0.00
2013-9-2,87.6,73.0,58.2,59.0,53.0,46.0,80,53,24,30.22,30.12,9,3,0,0.00
2013-9-3,93.2,77.6,63.2,58.0,50.6,46.0,65,41,22,30.21,30.14,22,4,0,0.01
2013-9-4,89.5,76.5,68.3,56.0,50.5,48.0,56,41,25,30.27,30.20,19,5,0,0.00
2013-9-5,89.0,75.4,62.3,55.0,50.8,47.0,63,43,25,30.28,30.20,10,3,0,0.00
2013-9-6,92.5,78.5,68.8,54.0,47.6,43.0,45,35,19,30.24,30.14,27,4,0,0.00
2013-9-7,90.7,77.1,63.2,52.0,47.6,44.0,53,36,21,30.21,30.11,11,4,0,0.00
2013-9-8,85.1,74.7,64.5,51.0,46.2,43.0,51,37,26,30.14,29.99,14,4,0,0.00
2013-9-9,82.4,66.7,58.2,59.0,52.8,47.0,95,64,34,30.16,30.02,17,5,0,0.74
2013-9-10,63.7,59.4,56.6,59.0,56.9,55.0,95,91,82,30.27,30.13,6,2,0,0.48
2013-9-11,62.4,59.5,57.5,60.0,58.5,57.0,98,96,90,30.28,30.23,19,5,0,3.05
2013-9-12,60.8,59.2,57.5,60.0,58.8,57.0,99,98,95,30.34,30.27,13,5,0,5.66
2013-9-21,69.4,62.9,63.1,49.0,37.9,-99.9,49,44,43,29.95,29.92,13,-39,0,0.00
2013-9-22,76.0,64.2,54.2,52.0,45.6,37.0,89,53,35,29.91,29.75,30,5,0,0.04
2013-9-23,64.0,57.4,50.3,51.0,38.2,29.0,95,54,30,30.11,29.70,27,8,0,0.48
2013-9-24,71.9,59.0,47.1,45.0,36.1,28.0,60,44,27,30.18,29.95,15,4,0,0.00
2013-9-25,74.3,60.4,46.4,52.0,38.8,30.0,62,46,28,29.95,29.64,7,3,0,0.00
2013-9-26,65.0,56.0,46.1,47.0,43.3,32.0,79,64,34,29.90,29.71,12,4,0,0.00
2013-9-27,54.4,46.2,39.1,50.0,44.0,38.0,96,92,71,30.06,29.85,10,4,0,0.38
2013-9-28,64.7,51.6,37.6,39.0,31.1,19.0,95,47,26,30.17,30.06,34,6,0,0.00
2013-9-29,71.7,58.7,45.1,43.0,31.6,21.0,57,38,18,30.16,29.99,30,5,0,0.00
2013-9-30,78.7,68.1,57.2,48.0,33.6,22.0,42,29,17,30.00,29.90,21,7,0,0.00
2013-10-1,69.9,61.7,53.6,48.0,38.2,24.0,60,44,18,30.16,30.00,16,4,0,0.00
2013-10-2,74.1,59.5,48.5,46.0,40.1,33.0,67,51,27,30.06,29.98,12,3,0,0.00
2013-10-3,57.8,50.1,42.1,47.0,41.5,37.0,95,73,57,30.02,29.86,11,3,0,0.11
2013-10-4,45.1,37.4,31.7,44.0,34.7,27.0,96,90,80,30.20,29.88,17,-252,0,0.68
2013-10-5,59.5,44.8,29.8,30.0,21.0,3.0,87,48,14,30.22,30.14,17,5,0,0.00
2013-10-6,65.9,52.7,40.4,41.0,28.7,5.0,56,41,18,30.28,30.19,10,4,0,0.00
2013-10-7,71.5,57.0,42.2,45.0,33.9,24.0,58,43,24,30.23,30.00,13,4,0,0.00
2013-10-8,72.5,62.6,55.0,45.0,32.5,19.0,53,34,15,29.99,29.86,17,4,0,0.00
2013-10-9,61.1,54.9,50.7,44.0,37.8,30.0,77,54,39,30.05,29.90,9,4,0,0.00
2013-10-10,56.2,50.4,44.4,47.0,40.6,28.0,91,71,40,30.03,29.66,35,5,0,0.00
2013-10-11,59.3,52.5,43.7,39.0,27.4,-99.9,79,41,33,30.11,29.56,40,0,0,0.02
2013-10-12,53.5,45.6,40.7,41.0,38.2,36.0,87,76,59,30.21,30.11,10,3,0,0.00
2013-10-13,57.7,47.3,36.9,45.0,39.5,34.0,91,75,56,30.17,29.96,7,2,0,0.00
2013-10-14,52.1,46.5,39.8,43.0,37.1,31.0,82,70,48,30.19,29.89,27,5,0,0.00
2013-10-15,43.1,38.1,34.1,32.0,28.7,25.0,82,69,58,30.29,30.19,14,6,0,0.00
2013-10-16,50.8,38.7,28.3,33.0,27.9,21.0,84,67,44,30.20,30.05,8,3,0,0.00
2013-10-17,46.5,40.3,33.7,34.0,29.4,23.0,84,66,54,30.15,30.07,7,3,0,0.01
2013-10-18,43.4,35.2,30.5,33.0,30.3,27.0,95,83,62,30.20,30.10,9,2,0,0.22
2013-10-19,60.0,51.0,31.9,32.0,22.8,19.0,79,35,23,30.13,29.97,21,7,0,0.02
2013-10-20,54.2,42.8,33.0,38.0,29.6,20.0,94,65,27,30.16,29.95,14,5,0,0.20
2013-10-21,57.1,44.6,31.4,33.0,28.2,24.0,90,57,30,30.19,30.11,18,6,0,0.00
2013-10-22,60.3,50.9,40.1,36.0,30.5,24.0,68,47,32,30.24,30.16,19,5,0,0.00
2013-10-23,60.6,50.4,41.0,38.0,31.7,26.0,65,50,35,30.25,30.14,11,4,0,0.00
2013-10-24,50.5,43.0,34.3,40.0,33.5,-99.9,83,72,62,30.28,30.22,6,-11,0,0.00
2013-10-25,63.8,49.9,36.5,39.0,33.3,27.0,80,56,31,30.26,30.15,9,3,0,0.00
2013-10-26,59.1,50.7,42.0,38.0,33.2,28.0,63,52,41,30.36,30.17,10,5,0,0.00
2013-10-27,66.1,55.9,41.6,31.0,24.8,20.0,67,32,19,30.16,29.92,22,7,0,0.00
2013-10-28,53.2,37.5,31.1,34.0,30.1,24.0,95,79,33,30.10,29.96,16,4,0,0.03
2013-10-29,36.7,33.7,31.7,34.0,31.8,30.0,95,92,87,30.06,29.95,11,1,0,0.00
2013-10-30,42.7,34.9,28.8,38.0,31.4,19.0,95,88,39,29.97,29.88,13,3,0,0.28
2013-10-31,50.4,44.6,34.1,30.0,20.2,14.0,82,40,27,29.96,29.86,37,14,0,0.00
2013-11-1,49.9,41.6,34.6,33.0,27.1,21.0,75,58,36,30.23,29.96,12,4,0,0.00
2013-11-2,58.2,43.0,30.9,34.0,23.2,9.0,67,49,17,30.23,29.84,11,4,0,0.00
2013-11-3,64.5,51.5,38.7,30.0,19.6,9.0,68,32,13,29.89,29.67,28,10,0,0.00
2013-11-4,40.8,35.1,28.7,30.0,22.0,16.0,91,61,38,30.05,29.89,17,5,0,0.00
2013-11-5,42.3,34.1,27.4,24.0,13.1,-3.0,78,47,19,30.14,29.95,27,8,0,0.00
2013-11-6,49.9,40.2,26.3,18.0,11.8,-99.9,50,33,24,30.31,30.11,30,-3,0,0.00
2013-11-7,50.6,41.1,30.3,29.0,23.2,18.0,63,50,35,30.35,30.03,13,4,0,0.00
2013-11-8,62.7,54.6,39.5,24.0,18.6,10.0,53,26,15,30.05,29.85,46,16,0,0.00
2013-11-9,57.5,47.0,37.0,34.0,28.1,18.0,71,51,22,30.26,30.04,29,5,0,0.00
2013-11-10,64.1,48.8,34.8,34.0,26.8,20.0,72,46,18,30.25,30.18,13,4,0,0.00
2013-11-11,61.0,45.4,30.6,34.0,26.0,19.0,85,51,23,30.58,30.21,18,5,0,0.00
2013-11-12,53.1,40.5,28.1,36.0,29.5,24.0,89,67,49,30.57,30.36,9,4,0,0.00
2013-11-13,63.6,53.2,39.7,28.0,17.5,11.0,54,25,15,30.35,30.06,19,6,0,0.00
2013-11-14,55.7,47.2,38.5,36.0,27.7,18.0,65,48,23,30.14,29.84,14,4,0,0.00
2013-11-15,59.8,45.5,32.8,28.0,20.1,12.0,79,42,16,29.84,29.59,29,11,0,0.00
2013-11-16,55.0,45.3,38.6,30.0,20.9,13.0,66,39,24,29.64,29.44,46,13,0,0.01
2013-11-17,54.4,42.3,32.3,27.0,17.9,12.0,72,40,20,30.09,29.65,28,9,0,0.00
2013-11-18,60.2,43.0,26.9,23.0,17.1,9.0,65,39,13,30.16,30.05,12,5,0,0.00
2013-11-19,56.3,49.2,38.1,33.0,20.8,9.0,59,33,18,30.05,29.82,40,9,0,0.00
2013-11-20,56.1,47.2,28.8,31.0,26.5,22.0,81,46,32,30.07,29.85,18,6,0,0.00
2013-11-21,27.6,16.2,13.3,24.0,11.6,-99.9,91,85,78,30.48,30.07,11,-6,0,0.21
2013-11-22,32.3,24.9,15.6,26.0,17.9,12.0,88,75,51,30.52,30.39,6,2,0,0.00
2013-11-23,33.1,26.4,22.8,23.0,15.2,-99.9,89,71,59,30.52,30.27,7,-40,0,0.02
2013-11-24,37.7,29.0,20.9,29.0,23.8,18.0,88,81,50,30.26,29.99,5,2,0,0.00
2013-11-25,41.0,35.7,32.5,31.0,23.6,16.0,76,62,36,30.28,30.05,10,3,0,0.00
2013-11-26,47.0,37.1,30.0,26.0,21.3,18.0,71,55,35,30.35,30.23,12,5,0,0.00
2013-11-27,58.6,42.6,29.1,27.0,20.8,18.0,66,44,21,30.23,30.07,12,4,0,0.00
2013-11-28,42.2,36.5,32.3,27.0,24.0,21.0,71,61,52,30.22,30.14,7,3,0,0.00
2013-11-29,58.0,47.5,33.5,25.0,19.3,15.0,69,36,19,30.18,30.10,25,8,0,0.00
2013-11-30,56.1,46.9,38.0,24.0,17.0,13.0,46,31,20,30.19,30.12,17,6,0,0.00
2013-12-1,52.5,46.4,36.5,25.0,20.0,16.0,52,36,28,30.17,29.91,45,13,0,0.00
2013-12-2,54.6,50.3,45.6,25.0,21.6,18.0,39,33,26,29.93,29.63,43,14,0,0.02
2013-12-3,51.4,35.3,9.8,29.0,18.4,7.0,88,56,29,29.81,29.58,30,12,0,0.15
2013-12-4,11.9,7.2,0.2,7.0,2.9,-4.0,87,82,76,30.03,29.78,7,2,0,0.20
2013-12-5,4.6,0.2,-5.7,-1.0,-5.5,-11.0,82,77,73,30.07,29.96,6,2,0,0.00
2013-12-6,3.6,0.1,-3.7,0.0,-5.5,-10.0,87,77,74,30.15,30.06,5,2,0,0.00
2013-12-7,6.5,2.4,-3.3,2.0,-3.1,-9.0,84,77,74,30.12,29.78,6,2,0,0.00
2013-12-8,14.2,7.3,1.6,12.0,2.3,-4.0,89,80,75,30.01,29.72,8,2,0,0.00
2013-12-9,26.2,11.4,-2.2,6.0,-1.1,-9.0,85,61,34,30.07,29.96,44,10,0,0.00
2013-12-10,38.9,32.5,24.0,14.0,8.9,1.0,65,38,30,30.22,29.85,66,21,0,0.01
2013-12-11,25.1,20.4,14.1,18.0,13.4,8.0,82,74,62,30.29,30.22,8,3,0,0.00
2013-12-12,47.2,33.1,22.6,23.0,12.7,7.0,58,44,24,30.25,29.98,7,2,0,0.00
2013-12-13,45.5,35.5,29.4,20.0,15.2,9.0,64,45,28,30.15,29.90,12,4,0,0.00
2013-12-14,42.4,33.2,24.4,19.0,15.1,12.0,72,49,30,30.24,30.14,14,4,0,0.00
2013-12-15,53.6,46.6,32.4,20.0,15.2,10.0,53,29,19,30.16,30.07,50,19,0,0.00
2013-12-16,57.2,52.5,44.2,17.0,11.6,3.0,27,20,13,30.24,30.06,51,21,0,0.00
2013-12-17,57.1,48.2,34.1,22.0,14.2,9.0,44,27,15,30.29,30.09,28,7,0,0.00
2013-12-18,62.9,56.8,50.6,17.0,8.7,4.0,25,15,10,30.08,29.81,23,11,0,0.00
2013-12-19,52.1,34.5,17.5,25.0,19.8,15.0,90,59,24,29.91,29.65,13,4,0,0.00
2013-12-20,24.6,19.9,16.8,21.0,16.9,14.0,93,88,85,29.90,29.70,6,2,0,0.00
2013-12-21,29.9,23.2,12.8,25.0,19.3,10.0,93,85,71,29.92,29.62,10,2,0,0.07
2013-12-22,35.3,24.9,16.5,23.0,17.5,12.0,87,75,42,30.20,29.92,16,4,0,0.00
2013-12-23,44.2,25.6,16.0,24.0,19.2,13.0,90,78,43,30.23,30.07,28,5,0,0.02
2013-12-24,48.1,40.4,25.1,32.0,17.4,5.0,68,40,25,30.25,29.94,45,16,0,0.02
2013-12-25,42.1,31.7,22.0,14.0,8.7,2.0,61,40,21,30.34,30.17,15,3,0,0.00
2013-12-26,51.5,41.4,32.9,15.0,9.3,1.0,47,28,16,30.28,30.14,33,7,0,0.00
2013-12-27,54.0,42.1,32.4,23.0,19.1,15.0,51,41,28,30.26,30.07,12,3,0,0.00
2013-12-28,52.7,38.1,21.0,25.0,20.7,18.0,87,53,28,30.21,29.92,16,5,0,0.03
2013-12-29,39.9,25.3,13.3,21.0,13.9,7.0,89,66,26,30.21,29.90,30,6,0,0.00
2013-12-30,45.3,38.9,23.6,14.0,11.4,8.0,62,33,25,30.18,29.96,26,10,0,0.00
2013-12-31,50.1,46.7,41.6,21.0,18.2,13.0,38,32,27,30.09,29.95,40,17,0,0.00
2014-1-1,46.1,34.0,23.5,30.0,23.2,18.0,86,67,35,30.27,29.93,25,6,0,0.00
2014-1-2,47.8,29.0,17.9,25.0,18.7,14.0,87,67,28,30.22,30.02,25,4,0,0.00